TimeAEST,TemperatureF,Dew PointF,Humidity,Sea Level PressureIn,VisibilityMPH,Wind Direction,Wind SpeedMPH,Gust SpeedMPH,PrecipitationIn,Events,Conditions,WindDirDegrees,DateUTC
12:00 AM,66,58,68,30.07,,SE,16.1,,,,,140,2013-06-19 14:00:00
12:00 AM,66.2,57.2,73,30.06,-9999.0,SE,16.1,-,N/A,,Unknown,140,2013-06-19 14:00:00
12:30 AM,66.2,57.2,73,30.06,-9999.0,SE,16.1,-,N/A,,Unknown,140,2013-06-19 14:30:00
1:00 AM,64.4,57.2,77,30.06,-9999.0,SE,16.1,-,N/A,,Unknown,140,2013-06-19 15:00:00
1:30 AM,64.4,57.2,77,30.06,-9999.0,SE,17.3,-,N/A,,Unknown,140,2013-06-19 15:30:00
2:00 AM,64.4,55.4,73,30.04,-9999.0,SE,18.4,-,N/A,,Unknown,140,2013-06-19 16:00:00
2:30 AM,64.4,57.2,77,30.04,-9999.0,SSE,18.4,-,N/A,,Unknown,150,2013-06-19 16:30:00
3:00 AM,65,58,70,30.05,,SSE,18.4,,,,,150,2013-06-19 17:00:00
3:00 AM,64.4,57.2,77,30.04,-9999.0,SSE,18.4,-,N/A,,Unknown,150,2013-06-19 17:00:00
3:30 AM,64.4,57.2,77,30.04,-9999.0,SE,19.6,-,N/A,,Unknown,130,2013-06-19 17:30:00
4:00 AM,64.4,57.2,77,30.04,-9999.0,SE,19.6,-,N/A,,Unknown,140,2013-06-19 18:00:00
4:30 AM,64.4,55.4,73,30.04,-9999.0,SE,20.7,-,N/A,,Unknown,140,2013-06-19 18:30:00
5:00 AM,64.4,53.6,68,30.04,-9999.0,SE,21.9,-,N/A,,Unknown,140,2013-06-19 19:00:00
5:30 AM,64.4,53.6,68,30.04,-9999.0,SSE,20.7,-,N/A,,Unknown,150,2013-06-19 19:30:00
6:00 AM,64,54,63,30.06,,SSE,19.6,,,,,160,2013-06-19 20:00:00
6:00 AM,64.4,53.6,68,30.04,-9999.0,SSE,19.6,-,N/A,,Unknown,150,2013-06-19 20:00:00
6:30 AM,64.4,55.4,73,30.04,-9999.0,SSE,19.6,-,N/A,,Unknown,150,2013-06-19 20:30:00
7:00 AM,64.4,55.4,73,30.06,-9999.0,SSE,20.7,-,N/A,,Unknown,150,2013-06-19 21:00:00
7:30 AM,64.4,55.4,73,30.06,-9999.0,SSE,19.6,-,N/A,,Unknown,150,2013-06-19 21:30:00
8:00 AM,64.4,55.4,73,30.06,-9999.0,SSE,20.7,-,N/A,,Unknown,150,2013-06-19 22:00:00
8:30 AM,64.4,53.6,68,30.09,-9999.0,SSE,18.4,-,N/A,,Unknown,150,2013-06-19 22:30:00
9:00 AM,66,54,57,30.10,,SSE,17.3,,,,,150,2013-06-19 23:00:00
9:00 AM,66.2,55.4,68,30.09,-9999.0,SSE,17.3,-,N/A,,Unknown,150,2013-06-19 23:00:00
9:30 AM,66.2,55.4,68,30.09,-9999.0,SSE,16.1,-,N/A,,Unknown,150,2013-06-19 23:30:00
10:00 AM,66.2,55.4,68,30.09,-9999.0,SSE,16.1,-,N/A,,Unknown,160,2013-06-20 00:00:00
10:30 AM,64.4,55.4,73,30.06,-9999.0,SSE,16.1,-,N/A,,Unknown,160,2013-06-20 00:30:00
11:00 AM,66.2,55.4,68,30.06,-9999.0,SSE,16.1,-,N/A,,Unknown,150,2013-06-20 01:00:00
11:30 AM,66.2,55.4,68,30.06,-9999.0,SSE,15.0,-,N/A,,Unknown,160,2013-06-20 01:30:00
12:00 PM,67,54,55,30.07,,SSE,15.0,,,,,160,2013-06-20 02:00:00
12:00 PM,66.2,55.4,68,30.06,-9999.0,SSE,15.0,-,N/A,,Unknown,160,2013-06-20 02:00:00
12:30 PM,68.0,55.4,64,30.04,-9999.0,SSE,13.8,-,N/A,,Unknown,160,2013-06-20 02:30:00
1:00 PM,66.2,57.2,73,30.04,-9999.0,SSE,15.0,-,N/A,,Unknown,160,2013-06-20 03:00:00
1:30 PM,66.2,57.2,73,30.01,-9999.0,SSE,15.0,-,N/A,,Unknown,150,2013-06-20 03:30:00
2:00 PM,66.2,57.2,73,30.04,-9999.0,SSE,13.8,-,N/A,,Unknown,150,2013-06-20 04:00:00
2:30 PM,66.2,57.2,73,30.01,-9999.0,SSE,12.7,-,N/A,,Unknown,160,2013-06-20 04:30:00
3:00 PM,66,57,66,30.02,,SSE,12.7,,,,,160,2013-06-20 05:00:00
3:00 PM,66.2,57.2,73,30.01,-9999.0,SSE,12.7,-,N/A,,Unknown,160,2013-06-20 05:00:00
3:30 PM,66.2,57.2,73,30.01,-9999.0,SSE,12.7,-,N/A,,Unknown,160,2013-06-20 05:30:00
4:00 PM,66.2,57.2,73,30.01,-9999.0,SSE,12.7,-,N/A,,Unknown,150,2013-06-20 06:00:00
4:30 PM,66.2,57.2,73,30.01,-9999.0,SSE,12.7,-,N/A,,Unknown,150,2013-06-20 06:30:00
5:00 PM,66.2,59.0,78,30.04,-9999.0,SSE,11.5,-,N/A,,Unknown,160,2013-06-20 07:00:00
5:30 PM,66.2,59.0,78,30.01,-9999.0,SE,15.0,-,N/A,,Unknown,140,2013-06-20 07:30:00
6:00 PM,65,59,76,30.04,,SSE,15.0,,,,,150,2013-06-20 08:00:00
6:00 PM,66.2,59.0,78,30.04,-9999.0,SSE,15.0,-,N/A,,Unknown,150,2013-06-20 08:00:00
6:30 PM,66.2,59.0,78,30.04,-9999.0,SSE,13.8,-,N/A,,Unknown,150,2013-06-20 08:30:00
7:00 PM,66.2,59.0,78,30.04,-9999.0,SE,13.8,-,N/A,,Unknown,130,2013-06-20 09:00:00
7:30 PM,66.2,59.0,78,30.04,-9999.0,SE,12.7,-,N/A,,Unknown,140,2013-06-20 09:30:00
8:00 PM,66.2,60.8,83,30.06,-9999.0,SE,13.8,-,N/A,,Unknown,140,2013-06-20 10:00:00
8:30 PM,66.2,60.8,83,30.06,-9999.0,SE,13.8,-,N/A,,Unknown,130,2013-06-20 10:30:00
9:00 PM,66,61,78,30.07,,SE,12.7,,,,,130,2013-06-20 11:00:00
9:00 PM,66.2,60.8,83,30.06,-9999.0,SE,12.7,-,N/A,,Unknown,130,2013-06-20 11:00:00
9:30 PM,66.2,60.8,83,30.06,-9999.0,SE,15.0,-,N/A,,Unknown,140,2013-06-20 11:30:00
10:00 PM,66.2,60.8,83,30.06,-9999.0,SE,13.8,-,N/A,,Unknown,140,2013-06-20 12:00:00
10:30 PM,66.2,59.0,78,30.06,-9999.0,SSE,12.7,-,N/A,,Unknown,150,2013-06-20 12:30:00
11:00 PM,66.2,59.0,78,30.06,-9999.0,SE,12.7,-,N/A,,Unknown,140,2013-06-20 13:00:00
11:30 PM,66.2,59.0,78,30.06,-9999.0,SSE,12.7,-,N/A,,Unknown,150,2013-06-20 13:30:00